Time,TemperatureF,DewpointF,PressureIn,WindDirection,WindDirectionDegrees,WindSpeedMPH,WindSpeedGustMPH,Humidity,HourlyPrecipIn,Conditions,Clouds,dailyrainin,SoftwareType,DateUTC
2017-02-24 00:02:00,32.8,32.0,29.51,WSW,247,0.0,0.0,93,0.00,,,0.00,Rainwise IP-100,2017-02-24 08:02:00,
2017-02-24 00:07:00,32.7,32.0,29.51,WSW,247,0.0,0.0,93,0.00,,,0.00,Rainwise IP-100,2017-02-24 08:07:00,
2017-02-24 00:12:00,32.4,31.0,29.52,WSW,247,0.0,0.0,93,0.00,,,0.00,Rainwise IP-100,2017-02-24 08:12:00,
2017-02-24 00:17:00,32.2,31.0,29.52,WSW,247,0.0,0.0,93,0.00,,,0.00,Rainwise IP-100,2017-02-24 08:17:00,
2017-02-24 00:22:00,32.1,31.0,29.52,WSW,247,0.0,0.0,94,0.00,,,0.00,Rainwise IP-100,2017-02-24 08:22:00,
2017-02-24 00:27:00,32.1,31.0,29.52,WSW,247,1.4,1.4,94,0.00,,,0.00,Rainwise IP-100,2017-02-24 08:27:00,
2017-02-24 00:32:00,32.0,31.0,29.52,WSW,247,2.6,2.6,94,0.00,,,0.00,Rainwise IP-100,2017-02-24 08:32:00,
2017-02-24 00:37:00,32.0,31.0,29.52,WSW,247,1.2,2.0,94,0.00,,,0.00,Rainwise IP-100,2017-02-24 08:37:00,
2017-02-24 00:42:00,32.2,31.0,29.52,WSW,247,0.0,2.0,94,0.00,,,0.00,Rainwise IP-100,2017-02-24 08:42:00,
2017-02-24 00:47:00,32.4,31.0,29.52,WSW,247,1.4,1.4,94,0.00,,,0.00,Rainwise IP-100,2017-02-24 08:47:00,
2017-02-24 00:52:00,32.5,32.0,29.52,WSW,247,0.0,1.0,95,0.00,,,0.00,Rainwise IP-100,2017-02-24 08:52:00,
2017-02-24 00:57:00,32.3,31.0,29.53,WSW,247,0.0,0.0,94,0.00,,,0.00,Rainwise IP-100,2017-02-24 08:57:00,
2017-02-24 01:02:00,32.0,31.0,29.52,WSW,247,0.0,0.0,94,0.00,,,0.00,Rainwise IP-100,2017-02-24 09:02:00,
2017-02-24 01:07:00,31.7,31.0,29.52,WSW,247,0.0,0.0,94,0.00,,,0.00,Rainwise IP-100,2017-02-24 09:07:00,
2017-02-24 01:12:00,31.4,29.0,29.53,WSW,247,2.1,2.1,94,0.00,,,0.00,Rainwise IP-100,2017-02-24 09:12:00,
2017-02-24 01:17:00,31.1,29.0,29.52,WSW,247,0.0,2.0,94,0.00,,,0.00,Rainwise IP-100,2017-02-24 09:17:00,
2017-02-24 01:22:00,31.0,29.0,29.52,WSW,247,0.0,1.0,95,0.00,,,0.00,Rainwise IP-100,2017-02-24 09:22:00,
2017-02-24 01:27:00,31.0,29.0,29.52,WSW,247,0.0,1.0,95,0.00,,,0.00,Rainwise IP-100,2017-02-24 09:27:00,
2017-02-24 01:32:00,31.0,29.0,29.52,WSW,247,0.0,0.0,95,0.00,,,0.00,Rainwise IP-100,2017-02-24 09:32:00,
2017-02-24 01:37:00,31.0,29.0,29.52,WSW,247,0.0,0.0,95,0.00,,,0.00,Rainwise IP-100,2017-02-24 09:37:00,
2017-02-24 01:42:00,30.8,29.0,29.52,WSW,247,1.4,0.0,95,0.00,,,0.00,Rainwise IP-100,2017-02-24 09:42:00,
2017-02-24 01:47:00,30.6,29.0,29.52,WSW,247,1.4,2.0,95,0.00,,,0.00,Rainwise IP-100,2017-02-24 09:47:00,
2017-02-24 01:52:00,30.5,29.0,29.52,WSW,247,0.0,1.0,95,0.00,,,0.00,Rainwise IP-100,2017-02-24 09:52:00,
2017-02-24 01:57:00,30.6,29.0,29.52,WSW,247,0.0,1.0,95,0.00,,,0.00,Rainwise IP-100,2017-02-24 09:57:00,
2017-02-24 02:02:00,30.6,29.0,29.52,WSW,247,0.0,1.0,95,0.00,,,0.00,Rainwise IP-100,2017-02-24 10:02:00,
2017-02-24 02:07:00,30.5,29.0,29.53,WSW,247,0.0,0.0,96,0.00,,,0.00,Rainwise IP-100,2017-02-24 10:07:00,
2017-02-24 02:12:00,30.4,29.0,29.53,WSW,247,0.0,0.0,96,0.00,,,0.00,Rainwise IP-100,2017-02-24 10:12:00,
2017-02-24 02:17:00,30.3,29.0,29.53,WSW,247,0.0,0.0,96,0.00,,,0.00,Rainwise IP-100,2017-02-24 10:17:00,
2017-02-24 02:22:00,30.2,29.0,29.53,WSW,247,0.0,1.0,96,0.00,,,0.00,Rainwise IP-100,2017-02-24 10:22:00,
2017-02-24 02:27:00,30.1,29.0,29.53,WSW,247,0.0,1.0,96,0.00,,,0.00,Rainwise IP-100,2017-02-24 10:27:00,
2017-02-24 02:32:00,30.2,29.0,29.53,WSW,247,0.0,0.0,96,0.00,,,0.00,Rainwise IP-100,2017-02-24 10:32:00,
2017-02-24 02:37:00,30.2,29.0,29.53,WSW,247,0.0,1.0,96,0.00,,,0.00,Rainwise IP-100,2017-02-24 10:37:00,
2017-02-24 02:42:00,30.1,29.0,29.52,WSW,247,0.0,0.0,96,0.00,,,0.00,Rainwise IP-100,2017-02-24 10:42:00,
2017-02-24 02:47:00,30.0,29.0,29.52,WSW,247,0.0,0.0,96,0.00,,,0.00,Rainwise IP-100,2017-02-24 10:47:00,
2017-02-24 02:52:00,29.9,29.0,29.51,WSW,247,0.0,0.0,96,0.00,,,0.00,Rainwise IP-100,2017-02-24 10:52:00,
2017-02-24 02:57:00,29.9,29.0,29.52,WSW,247,1.2,1.2,96,0.00,,,0.00,Rainwise IP-100,2017-02-24 10:57:00,
2017-02-24 03:02:00,29.8,29.0,29.52,WSW,247,0.0,1.0,96,0.00,,,0.00,Rainwise IP-100,2017-02-24 11:02:00,
2017-02-24 03:07:00,29.6,29.0,29.51,WSW,247,0.0,1.0,96,0.00,,,0.00,Rainwise IP-100,2017-02-24 11:07:00,
2017-02-24 03:12:00,29.5,29.0,29.51,WSW,247,0.0,1.0,96,0.00,,,0.00,Rainwise IP-100,2017-02-24 11:12:00,
2017-02-24 03:17:00,29.5,29.0,29.51,WSW,247,0.0,1.0,96,0.00,,,0.00,Rainwise IP-100,2017-02-24 11:17:00,
2017-02-24 03:22:00,29.5,29.0,29.51,WSW,247,1.6,2.0,96,0.00,,,0.00,Rainwise IP-100,2017-02-24 11:22:00,
2017-02-24 03:27:00,29.5,29.0,29.50,WSW,247,0.0,2.0,96,0.00,,,0.00,Rainwise IP-100,2017-02-24 11:27:00,
2017-02-24 03:32:00,29.6,29.0,29.51,WSW,247,0.0,1.0,97,0.00,,,0.00,Rainwise IP-100,2017-02-24 11:32:00,
2017-02-24 03:37:00,29.5,29.0,29.51,WSW,247,0.0,1.0,97,0.00,,,0.00,Rainwise IP-100,2017-02-24 11:37:00,
2017-02-24 03:42:00,29.6,29.0,29.51,WSW,247,0.0,0.0,97,0.00,,,0.00,Rainwise IP-100,2017-02-24 11:42:00,
2017-02-24 03:47:00,29.7,29.0,29.51,WSW,247,0.0,0.0,97,0.00,,,0.00,Rainwise IP-100,2017-02-24 11:47:00,
2017-02-24 03:52:00,29.7,29.0,29.50,WSW,247,0.0,0.0,97,0.00,,,0.00,Rainwise IP-100,2017-02-24 11:52:00,
2017-02-24 03:57:00,29.6,29.0,29.51,WSW,247,0.0,0.0,97,0.00,,,0.00,Rainwise IP-100,2017-02-24 11:57:00,
2017-02-24 04:02:00,29.4,29.0,29.51,WSW,247,0.0,0.0,97,0.00,,,0.00,Rainwise IP-100,2017-02-24 12:02:00,
2017-02-24 04:07:00,29.3,29.0,29.50,WSW,247,0.0,0.0,97,0.00,,,0.00,Rainwise IP-100,2017-02-24 12:07:00,
2017-02-24 04:12:00,29.2,29.0,29.50,WSW,247,0.0,0.0,97,0.00,,,0.00,Rainwise IP-100,2017-02-24 12:12:00,
2017-02-24 04:17:00,29.2,29.0,29.50,WSW,247,0.0,0.0,97,0.00,,,0.00,Rainwise IP-100,2017-02-24 12:17:00,
2017-02-24 04:22:00,29.1,29.0,29.50,WSW,247,0.0,0.0,97,0.00,,,0.00,Rainwise IP-100,2017-02-24 12:22:00,
2017-02-24 04:27:00,29.0,29.0,29.51,WSW,247,0.0,0.0,97,0.00,,,0.00,Rainwise IP-100,2017-02-24 12:27:00,
2017-02-24 04:32:00,28.9,29.0,29.51,WSW,247,0.0,0.0,97,0.00,,,0.00,Rainwise IP-100,2017-02-24 12:32:00,
2017-02-24 04:37:00,28.9,29.0,29.50,WSW,247,0.0,0.0,97,0.00,,,0.00,Rainwise IP-100,2017-02-24 12:37:00,
2017-02-24 04:42:00,28.8,29.0,29.50,WSW,247,0.0,0.0,97,0.00,,,0.00,Rainwise IP-100,2017-02-24 12:42:00,
2017-02-24 04:47:00,28.8,29.0,29.51,WSW,247,0.0,2.0,97,0.00,,,0.00,Rainwise IP-100,2017-02-24 12:47:00,
2017-02-24 04:52:00,28.9,29.0,29.50,WSW,247,0.0,0.0,97,0.00,,,0.00,Rainwise IP-100,2017-02-24 12:52:00,
2017-02-24 04:57:00,29.0,29.0,29.51,WSW,247,0.0,0.0,97,0.00,,,0.00,Rainwise IP-100,2017-02-24 12:57:00,
2017-02-24 05:02:00,29.0,29.0,29.51,WSW,247,0.0,0.0,97,0.00,,,0.00,Rainwise IP-100,2017-02-24 13:02:00,
2017-02-24 05:07:00,29.0,29.0,29.51,WSW,247,0.0,1.0,97,0.00,,,0.00,Rainwise IP-100,2017-02-24 13:07:00,
2017-02-24 05:12:00,29.0,29.0,29.51,WSW,247,0.0,0.0,97,0.00,,,0.00,Rainwise IP-100,2017-02-24 13:12:00,
2017-02-24 05:17:00,29.0,29.0,29.51,WSW,247,0.0,0.0,97,0.00,,,0.00,Rainwise IP-100,2017-02-24 13:17:00,
2017-02-24 05:22:00,28.9,29.0,29.51,WSW,247,0.0,0.0,97,0.00,,,0.00,Rainwise IP-100,2017-02-24 13:22:00,
2017-02-24 05:27:00,28.7,29.0,29.51,WSW,247,1.9,0.0,97,0.00,,,0.00,Rainwise IP-100,2017-02-24 13:27:00,
2017-02-24 05:32:00,28.5,29.0,29.51,WSW,247,0.0,2.0,97,0.00,,,0.00,Rainwise IP-100,2017-02-24 13:32:00,
2017-02-24 05:37:00,28.5,29.0,29.51,WSW,247,0.0,2.0,97,0.00,,,0.00,Rainwise IP-100,2017-02-24 13:37:00,
2017-02-24 05:42:00,28.6,29.0,29.51,WSW,247,0.0,1.0,97,0.00,,,0.00,Rainwise IP-100,2017-02-24 13:42:00,
2017-02-24 05:47:00,28.7,29.0,29.52,WSW,247,0.0,0.0,97,0.00,,,0.00,Rainwise IP-100,2017-02-24 13:47:00,
2017-02-24 05:52:00,28.8,29.0,29.52,WSW,247,0.0,0.0,97,0.00,,,0.00,Rainwise IP-100,2017-02-24 13:52:00,
2017-02-24 05:57:00,28.7,29.0,29.51,WSW,247,0.0,0.0,97,0.00,,,0.00,Rainwise IP-100,2017-02-24 13:57:00,
2017-02-24 06:02:00,28.5,29.0,29.51,WSW,247,0.0,1.0,97,0.00,,,0.00,Rainwise IP-100,2017-02-24 14:02:00,
2017-02-24 06:07:00,28.4,28.0,29.52,WSW,247,0.0,0.0,97,0.00,,,0.00,Rainwise IP-100,2017-02-24 14:07:00,
2017-02-24 06:12:00,28.4,28.0,29.51,WSW,247,0.0,0.0,97,0.00,,,0.00,Rainwise IP-100,2017-02-24 14:12:00,
2017-02-24 06:17:00,28.3,28.0,29.51,WSW,247,0.0,0.0,97,0.00,,,0.00,Rainwise IP-100,2017-02-24 14:17:00,
2017-02-24 06:22:00,28.2,28.0,29.51,WSW,247,0.0,0.0,97,0.00,,,0.00,Rainwise IP-100,2017-02-24 14:22:00,
2017-02-24 06:27:00,28.0,28.0,29.51,WSW,247,0.0,0.0,98,0.00,,,0.00,Rainwise IP-100,2017-02-24 14:27:00,
2017-02-24 06:32:00,27.8,28.0,29.52,WSW,247,0.0,0.0,97,0.00,,,0.00,Rainwise IP-100,2017-02-24 14:32:00,
2017-02-24 06:37:00,27.7,28.0,29.52,WSW,247,0.0,0.0,97,0.00,,,0.00,Rainwise IP-100,2017-02-24 14:37:00,
2017-02-24 06:42:00,27.8,28.0,29.52,WSW,247,0.0,0.0,98,0.00,,,0.00,Rainwise IP-100,2017-02-24 14:42:00,
2017-02-24 06:47:00,27.9,28.0,29.52,WSW,247,1.2,1.2,98,0.00,,,0.00,Rainwise IP-100,2017-02-24 14:47:00,
2017-02-24 06:52:00,28.1,28.0,29.52,WSW,247,0.0,1.0,98,0.00,,,0.00,Rainwise IP-100,2017-02-24 14:52:00,
2017-02-24 06:57:00,28.2,28.0,29.52,WSW,247,0.0,0.0,98,0.00,,,0.00,Rainwise IP-100,2017-02-24 14:57:00,
2017-02-24 07:02:00,28.3,28.0,29.52,WSW,247,0.0,0.0,98,0.00,,,0.00,Rainwise IP-100,2017-02-24 15:02:00,
2017-02-24 07:03:00,28.3,28.0,29.52,WSW,247,0.0,0.0,98,0.00,,,0.00,Rainwise IP-100,2017-02-24 15:03:00,
2017-02-24 07:08:00,28.4,28.0,29.52,WSW,247,0.0,0.0,98,0.00,,,0.00,Rainwise IP-100,2017-02-24 15:08:00,
2017-02-24 07:13:00,28.7,29.0,29.53,WSW,247,0.0,0.0,98,0.00,,,0.00,Rainwise IP-100,2017-02-24 15:13:00,
2017-02-24 07:18:00,29.3,29.0,29.53,WSW,247,0.0,0.0,98,0.00,,,0.00,Rainwise IP-100,2017-02-24 15:18:00,
2017-02-24 07:23:00,29.8,31.0,29.53,WSW,247,0.0,0.0,98,0.00,,,0.00,Rainwise IP-100,2017-02-24 15:23:00,
2017-02-24 07:24:00,29.9,31.0,29.53,WSW,247,0.0,0.0,98,0.00,,,0.00,Rainwise IP-100,2017-02-24 15:24:00,
2017-02-24 07:29:00,30.5,31.0,29.53,WSW,247,0.0,0.0,99,0.00,,,0.00,Rainwise IP-100,2017-02-24 15:29:00,
2017-02-24 07:34:00,31.1,31.0,29.54,WSW,247,0.0,0.0,99,0.00,,,0.00,Rainwise IP-100,2017-02-24 15:34:00,
2017-02-24 07:39:00,31.8,32.0,29.54,WSW,247,0.0,0.0,99,0.00,,,0.00,Rainwise IP-100,2017-02-24 15:39:00,
2017-02-24 07:44:00,32.5,33.0,29.54,WSW,247,0.0,0.0,99,0.00,,,0.00,Rainwise IP-100,2017-02-24 15:44:00,
2017-02-24 07:49:00,33.2,33.0,29.54,WSW,247,0.0,0.0,99,0.00,,,0.00,Rainwise IP-100,2017-02-24 15:49:00,
2017-02-24 07:54:00,33.4,33.0,29.55,WSW,247,0.0,0.0,98,0.00,,,0.00,Rainwise IP-100,2017-02-24 15:54:00,
2017-02-24 07:59:00,33.2,32.0,29.54,WSW,247,0.0,0.0,97,0.00,,,0.00,Rainwise IP-100,2017-02-24 15:59:00,
2017-02-24 08:04:00,33.1,32.0,29.55,ESE,112,1.4,2.0,97,0.00,,,0.00,Rainwise IP-100,2017-02-24 16:04:00,
2017-02-24 08:09:00,33.3,32.0,29.54,ESE,112,0.0,2.0,97,0.00,,,0.00,Rainwise IP-100,2017-02-24 16:09:00,
2017-02-24 08:14:00,33.9,33.0,29.55,ESE,112,0.0,1.0,97,0.00,,,0.00,Rainwise IP-100,2017-02-24 16:14:00,
2017-02-24 08:19:00,34.7,33.0,29.56,ESE,112,0.0,1.0,97,0.00,,,0.00,Rainwise IP-100,2017-02-24 16:19:00,
2017-02-24 08:24:00,35.4,33.0,29.55,ESE,112,0.0,1.0,97,0.00,,,0.00,Rainwise IP-100,2017-02-24 16:24:00,
2017-02-24 08:29:00,36.1,35.0,29.56,ESE,112,0.0,0.0,97,0.00,,,0.00,Rainwise IP-100,2017-02-24 16:29:00,
2017-02-24 08:34:00,36.8,36.0,29.55,ESE,112,1.6,2.0,97,0.00,,,0.00,Rainwise IP-100,2017-02-24 16:34:00,
2017-02-24 08:39:00,37.1,36.0,29.56,SSE,157,0.0,3.0,96,0.00,,,0.00,Rainwise IP-100,2017-02-24 16:39:00,
2017-02-24 08:44:00,37.3,36.0,29.56,ESE,112,3.3,3.3,95,0.00,,,0.00,Rainwise IP-100,2017-02-24 16:44:00,
2017-02-24 08:49:00,37.2,36.0,29.56,East,90,2.6,3.0,94,0.00,,,0.00,Rainwise IP-100,2017-02-24 16:49:00,
2017-02-24 08:54:00,37.0,35.0,29.56,East,90,1.2,3.0,93,0.00,,,0.00,Rainwise IP-100,2017-02-24 16:54:00,
2017-02-24 08:59:00,37.2,35.0,29.56,East,90,2.1,3.0,93,0.00,,,0.00,Rainwise IP-100,2017-02-24 16:59:00,
2017-02-24 09:04:00,37.8,36.0,29.56,ESE,112,1.9,2.0,93,0.00,,,0.00,Rainwise IP-100,2017-02-24 17:04:00,
2017-02-24 09:09:00,38.4,36.0,29.57,SSE,157,2.1,2.1,92,0.00,,,0.00,Rainwise IP-100,2017-02-24 17:09:00,
2017-02-24 09:14:00,39.4,37.0,29.57,SSE,157,1.2,3.0,93,0.00,,,0.00,Rainwise IP-100,2017-02-24 17:14:00,
2017-02-24 09:19:00,40.5,39.0,29.57,SSE,157,3.3,3.3,94,0.00,,,0.00,Rainwise IP-100,2017-02-24 17:19:00,
2017-02-24 09:20:00,40.7,39.0,29.57,SSE,157,2.3,3.0,94,0.00,,,0.00,Rainwise IP-100,2017-02-24 17:20:00,
2017-02-24 09:25:00,40.9,39.0,29.57,East,90,1.6,3.0,91,0.00,,,0.00,Rainwise IP-100,2017-02-24 17:25:00,
2017-02-24 09:30:00,40.7,38.0,29.57,ESE,112,2.3,3.0,88,0.00,,,0.00,Rainwise IP-100,2017-02-24 17:30:00,
2017-02-24 09:35:00,41.2,38.0,29.57,SE,135,1.6,3.0,89,0.00,,,0.00,Rainwise IP-100,2017-02-24 17:35:00,
2017-02-24 09:40:00,42.3,39.0,29.57,ESE,112,0.0,3.0,89,0.00,,,0.00,Rainwise IP-100,2017-02-24 17:40:00,
2017-02-24 09:45:00,43.4,40.0,29.57,SSE,157,3.3,3.3,89,0.00,,,0.00,Rainwise IP-100,2017-02-24 17:45:00,
2017-02-24 09:50:00,44.2,40.0,29.57,SE,135,1.4,3.0,87,0.00,,,0.00,Rainwise IP-100,2017-02-24 17:50:00,
2017-02-24 09:55:00,44.7,40.0,29.57,SE,135,1.6,3.0,83,0.00,,,0.00,Rainwise IP-100,2017-02-24 17:55:00,
2017-02-24 10:00:00,45.2,39.0,29.57,SSE,157,1.9,4.0,80,0.00,,,0.00,Rainwise IP-100,2017-02-24 18:00:00,
2017-02-24 10:05:00,45.6,39.0,29.57,SSE,157,4.0,4.0,77,0.00,,,0.00,Rainwise IP-100,2017-02-24 18:05:00,
2017-02-24 10:10:00,45.6,38.0,29.56,SSE,157,4.0,4.0,75,0.00,,,0.00,Rainwise IP-100,2017-02-24 18:10:00,
2017-02-24 10:15:00,45.7,38.0,29.57,SSE,157,1.9,5.0,73,0.00,,,0.00,Rainwise IP-100,2017-02-24 18:15:00,
2017-02-24 10:20:00,46.0,38.0,29.56,SSE,157,0.0,3.0,73,0.00,,,0.00,Rainwise IP-100,2017-02-24 18:20:00,
2017-02-24 10:25:00,46.5,38.0,29.56,SSE,157,2.8,4.0,73,0.00,,,0.00,Rainwise IP-100,2017-02-24 18:25:00,
2017-02-24 10:30:00,46.8,38.0,29.56,SSE,157,1.2,4.0,72,0.00,,,0.00,Rainwise IP-100,2017-02-24 18:30:00,
2017-02-24 10:35:00,47.1,37.0,29.56,SSW,202,2.3,5.0,70,0.00,,,0.00,Rainwise IP-100,2017-02-24 18:35:00,
2017-02-24 10:40:00,47.6,38.0,29.56,SSE,157,0.0,4.0,70,0.00,,,0.00,Rainwise IP-100,2017-02-24 18:40:00,
2017-02-24 10:45:00,48.3,38.0,29.56,SSW,202,0.0,4.0,69,0.00,,,0.00,Rainwise IP-100,2017-02-24 18:45:00,
2017-02-24 10:50:00,49.0,39.0,29.56,SSE,157,3.5,6.0,68,0.00,,,0.00,Rainwise IP-100,2017-02-24 18:50:00,
2017-02-24 10:55:00,49.2,38.0,29.56,SSE,157,4.7,6.0,66,0.00,,,0.00,Rainwise IP-100,2017-02-24 18:55:00,
2017-02-24 11:00:00,49.1,37.0,29.56,SSW,202,1.9,5.0,64,0.00,,,0.00,Rainwise IP-100,2017-02-24 19:00:00,
2017-02-24 11:05:00,49.1,37.0,29.55,SSW,202,2.1,5.0,63,0.00,,,0.00,Rainwise IP-100,2017-02-24 19:05:00,
2017-02-24 11:10:00,49.1,37.0,29.56,SSE,157,5.4,5.4,63,0.00,,,0.00,Rainwise IP-100,2017-02-24 19:10:00,
2017-02-24 11:15:00,49.2,37.0,29.56,SSE,157,3.7,5.0,63,0.00,,,0.00,Rainwise IP-100,2017-02-24 19:15:00,
2017-02-24 11:20:00,49.3,37.0,29.56,SSE,157,4.0,6.0,62,0.00,,,0.00,Rainwise IP-100,2017-02-24 19:20:00,
2017-02-24 11:25:00,49.5,37.0,29.56,SSE,157,4.0,7.0,61,0.00,,,0.00,Rainwise IP-100,2017-02-24 19:25:00,
2017-02-24 11:30:00,49.6,37.0,29.56,SSE,157,1.9,5.0,60,0.00,,,0.00,Rainwise IP-100,2017-02-24 19:30:00,
2017-02-24 11:35:00,50.1,36.0,29.56,ENE,67,2.3,3.0,59,0.00,,,0.00,Rainwise IP-100,2017-02-24 19:35:00,
2017-02-24 11:40:00,50.6,37.0,29.55,NE,45,2.6,5.0,59,0.00,,,0.00,Rainwise IP-100,2017-02-24 19:40:00,
2017-02-24 11:45:00,50.9,37.0,29.55,ESE,112,1.6,5.0,59,0.00,,,0.00,Rainwise IP-100,2017-02-24 19:45:00,
2017-02-24 11:50:00,50.8,37.0,29.55,ESE,112,3.5,6.0,59,0.00,,,0.00,Rainwise IP-100,2017-02-24 19:50:00,
2017-02-24 11:51:00,50.8,37.0,29.55,East,90,3.0,6.0,59,0.00,,,0.00,Rainwise IP-100,2017-02-24 19:51:00,
2017-02-24 11:56:00,50.4,37.0,29.55,ESE,112,0.0,5.0,59,0.00,,,0.00,Rainwise IP-100,2017-02-24 19:56:00,
2017-02-24 12:01:00,50.5,37.0,29.55,SE,135,0.0,7.0,59,0.00,,,0.00,Rainwise IP-100,2017-02-24 20:01:00,
2017-02-24 12:06:00,50.6,37.0,29.55,ESE,112,0.0,3.0,59,0.00,,,0.00,Rainwise IP-100,2017-02-24 20:06:00,
2017-02-24 12:11:00,50.5,36.0,29.54,ESE,112,0.0,5.0,58,0.00,,,0.00,Rainwise IP-100,2017-02-24 20:11:00,
2017-02-24 12:16:00,50.3,36.0,29.54,ESE,112,0.0,5.0,57,0.00,,,0.00,Rainwise IP-100,2017-02-24 20:16:00,
2017-02-24 12:21:00,50.3,36.0,29.54,SSE,157,2.1,2.1,58,0.00,,,0.00,Rainwise IP-100,2017-02-24 20:21:00,
2017-02-24 12:26:00,50.7,36.0,29.54,SSE,157,0.0,2.0,58,0.00,,,0.00,Rainwise IP-100,2017-02-24 20:26:00,
2017-02-24 12:31:00,50.8,36.0,29.54,NNE,22,0.0,5.0,57,0.00,,,0.00,Rainwise IP-100,2017-02-24 20:31:00,
2017-02-24 12:36:00,50.7,36.0,29.54,ENE,67,4.2,4.2,57,0.00,,,0.00,Rainwise IP-100,2017-02-24 20:36:00,
2017-02-24 12:41:00,50.4,36.0,29.54,ESE,112,2.6,6.0,57,0.00,,,0.00,Rainwise IP-100,2017-02-24 20:41:00,
2017-02-24 12:46:00,50.2,35.0,29.53,SE,135,0.0,4.0,56,0.00,,,0.00,Rainwise IP-100,2017-02-24 20:46:00,
2017-02-24 12:51:00,50.1,35.0,29.53,East,90,2.1,4.0,56,0.00,,,0.00,Rainwise IP-100,2017-02-24 20:51:00,
2017-02-24 12:56:00,50.2,35.0,29.52,ENE,67,2.6,4.0,56,0.00,,,0.00,Rainwise IP-100,2017-02-24 20:56:00,
2017-02-24 13:01:00,51.1,37.0,29.52,SSE,157,6.1,6.1,57,0.00,,,0.00,Rainwise IP-100,2017-02-24 21:01:00,
2017-02-24 13:06:00,52.0,36.0,29.53,SSE,157,6.5,9.0,54,0.00,,,0.00,Rainwise IP-100,2017-02-24 21:06:00,
2017-02-24 13:11:00,52.3,35.0,29.52,ESE,112,2.1,10.0,50,0.00,,,0.00,Rainwise IP-100,2017-02-24 21:11:00,
2017-02-24 13:16:00,52.6,35.0,29.52,SW,225,3.0,6.0,49,0.00,,,0.00,Rainwise IP-100,2017-02-24 21:16:00,
2017-02-24 13:21:00,52.8,33.0,29.51,SSE,157,0.0,8.0,48,0.00,,,0.00,Rainwise IP-100,2017-02-24 21:21:00,
2017-02-24 13:26:00,52.6,33.0,29.52,South,180,4.0,9.0,47,0.00,,,0.00,Rainwise IP-100,2017-02-24 21:26:00,
2017-02-24 13:31:00,52.3,32.0,29.51,South,180,4.4,10.0,47,0.00,,,0.00,Rainwise IP-100,2017-02-24 21:31:00,
2017-02-24 13:36:00,52.3,32.0,29.51,SSE,157,4.7,9.0,46,0.00,,,0.00,Rainwise IP-100,2017-02-24 21:36:00,
2017-02-24 13:41:00,52.8,32.0,29.51,South,180,3.0,11.0,46,0.00,,,0.00,Rainwise IP-100,2017-02-24 21:41:00,
2017-02-24 13:46:00,53.4,32.0,29.51,SSE,157,4.9,10.0,45,0.00,,,0.00,Rainwise IP-100,2017-02-24 21:46:00,
2017-02-24 13:51:00,53.9,33.0,29.50,WSW,247,6.5,10.0,45,0.00,,,0.00,Rainwise IP-100,2017-02-24 21:51:00,
2017-02-24 13:56:00,54.2,32.0,29.50,South,180,6.3,10.0,44,0.00,,,0.00,Rainwise IP-100,2017-02-24 21:56:00,
2017-02-24 14:01:00,54.2,32.0,29.50,SSW,202,2.1,11.0,43,0.00,,,0.00,Rainwise IP-100,2017-02-24 22:01:00,
2017-02-24 14:06:00,54.1,31.0,29.50,SSW,202,3.5,12.0,41,0.00,,,0.00,Rainwise IP-100,2017-02-24 22:06:00,
2017-02-24 14:11:00,54.0,31.0,29.50,SSE,157,6.5,12.0,40,0.00,,,0.00,Rainwise IP-100,2017-02-24 22:11:00,
2017-02-24 14:16:00,53.8,31.0,29.50,SSW,202,7.2,10.0,41,0.00,,,0.00,Rainwise IP-100,2017-02-24 22:16:00,
2017-02-24 14:21:00,53.7,29.0,29.50,WSW,247,3.7,13.0,39,0.00,,,0.00,Rainwise IP-100,2017-02-24 22:21:00,
2017-02-24 14:28:00,53.5,29.0,29.49,SW,225,5.1,10.0,38,0.00,,,0.00,Rainwise IP-100,2017-02-24 22:28:00,
2017-02-24 14:33:00,53.0,28.0,29.50,SSW,202,4.4,14.0,37,0.00,,,0.00,Rainwise IP-100,2017-02-24 22:33:00,
2017-02-24 14:38:00,52.7,28.0,29.50,SSW,202,5.1,9.0,37,0.00,,,0.00,Rainwise IP-100,2017-02-24 22:38:00,
2017-02-24 14:43:00,52.7,28.0,29.50,WSW,247,5.1,10.0,38,0.00,,,0.00,Rainwise IP-100,2017-02-24 22:43:00,
2017-02-24 14:48:00,52.8,28.0,29.49,WSW,247,5.1,11.0,37,0.00,,,0.00,Rainwise IP-100,2017-02-24 22:48:00,
2017-02-24 14:53:00,52.6,28.0,29.49,SW,225,5.6,12.0,37,0.00,,,0.00,Rainwise IP-100,2017-02-24 22:53:00,
2017-02-24 14:58:00,52.4,26.0,29.49,SW,225,5.1,8.0,36,0.00,,,0.00,Rainwise IP-100,2017-02-24 22:58:00,
2017-02-24 15:03:00,52.5,28.0,29.49,SSW,202,6.3,9.0,37,0.00,,,0.00,Rainwise IP-100,2017-02-24 23:03:00,
2017-02-24 15:08:00,52.7,28.0,29.50,SW,225,4.4,12.0,38,0.00,,,0.00,Rainwise IP-100,2017-02-24 23:08:00,
2017-02-24 15:13:00,52.7,29.0,29.49,SSW,202,8.9,14.0,39,0.00,,,0.00,Rainwise IP-100,2017-02-24 23:13:00,
2017-02-24 15:18:00,52.7,29.0,29.50,SW,225,7.9,11.0,39,0.00,,,0.00,Rainwise IP-100,2017-02-24 23:18:00,
2017-02-24 15:23:00,52.7,29.0,29.50,WSW,247,4.4,10.0,39,0.00,,,0.00,Rainwise IP-100,2017-02-24 23:23:00,
2017-02-24 15:28:00,52.8,29.0,29.49,SSW,202,2.8,7.0,39,0.00,,,0.00,Rainwise IP-100,2017-02-24 23:28:00,
2017-02-24 15:33:00,53.0,29.0,29.49,WSW,247,6.8,11.0,40,0.00,,,0.00,Rainwise IP-100,2017-02-24 23:33:00,
2017-02-24 15:38:00,52.8,29.0,29.49,WSW,247,3.7,12.0,40,0.00,,,0.00,Rainwise IP-100,2017-02-24 23:38:00,
2017-02-24 15:43:00,52.6,29.0,29.49,SW,225,5.8,10.0,41,0.00,,,0.00,Rainwise IP-100,2017-02-24 23:43:00,
2017-02-24 15:48:00,52.7,29.0,29.49,SSW,202,5.1,14.0,41,0.00,,,0.00,Rainwise IP-100,2017-02-24 23:48:00,
2017-02-24 15:53:00,52.7,31.0,29.49,South,180,2.8,9.0,42,0.00,,,0.00,Rainwise IP-100,2017-02-24 23:53:00,
2017-02-24 15:58:00,52.7,31.0,29.49,SW,225,7.2,12.0,42,0.00,,,0.00,Rainwise IP-100,2017-02-24 23:58:00,
2017-02-24 16:03:00,52.6,31.0,29.49,SSW,202,5.4,10.0,43,0.00,,,0.00,Rainwise IP-100,2017-02-25 00:03:00,
2017-02-24 16:08:00,52.5,32.0,29.49,WSW,247,7.7,12.0,44,0.00,,,0.00,Rainwise IP-100,2017-02-25 00:08:00,
2017-02-24 16:13:00,52.2,32.0,29.49,SSW,202,5.6,8.0,45,0.00,,,0.00,Rainwise IP-100,2017-02-25 00:13:00,
2017-02-24 16:18:00,51.9,32.0,29.49,SSW,202,9.3,10.0,46,0.00,,,0.00,Rainwise IP-100,2017-02-25 00:18:00,
2017-02-24 16:23:00,51.4,32.0,29.49,West,270,4.7,9.0,47,0.00,,,0.00,Rainwise IP-100,2017-02-25 00:23:00,
2017-02-24 16:28:00,50.9,32.0,29.49,SSW,202,3.3,7.0,48,0.00,,,0.00,Rainwise IP-100,2017-02-25 00:28:00,
2017-02-24 16:33:00,50.9,33.0,29.49,SW,225,4.4,10.0,49,0.00,,,0.00,Rainwise IP-100,2017-02-25 00:33:00,
2017-02-24 16:38:00,51.0,33.0,29.49,WSW,247,2.3,5.0,49,0.00,,,0.00,Rainwise IP-100,2017-02-25 00:38:00,
2017-02-24 16:43:00,51.3,33.0,29.49,WNW,292,3.0,7.0,49,0.00,,,0.00,Rainwise IP-100,2017-02-25 00:43:00,
2017-02-24 16:48:00,51.3,33.0,29.48,SW,225,3.3,6.0,49,0.00,,,0.00,Rainwise IP-100,2017-02-25 00:48:00,
2017-02-24 16:53:00,51.3,33.0,29.49,SSW,202,1.6,6.0,50,0.00,,,0.00,Rainwise IP-100,2017-02-25 00:53:00,
2017-02-24 16:58:00,51.3,33.0,29.48,WSW,247,6.8,6.8,50,0.00,,,0.00,Rainwise IP-100,2017-02-25 00:58:00,
2017-02-24 17:03:00,50.9,33.0,29.48,SSW,202,3.0,9.0,51,0.00,,,0.00,Rainwise IP-100,2017-02-25 01:03:00,
2017-02-24 17:08:00,50.1,33.0,29.48,SSW,202,3.7,5.0,53,0.00,,,0.00,Rainwise IP-100,2017-02-25 01:08:00,
2017-02-24 17:13:00,49.5,35.0,29.48,SSW,202,0.0,6.0,55,0.00,,,0.00,Rainwise IP-100,2017-02-25 01:13:00,
2017-02-24 17:18:00,49.0,35.0,29.48,ESE,112,4.7,4.7,56,0.00,,,0.00,Rainwise IP-100,2017-02-25 01:18:00,
2017-02-24 17:23:00,48.5,35.0,29.48,South,180,2.1,6.0,58,0.00,,,0.00,Rainwise IP-100,2017-02-25 01:23:00,
2017-02-24 17:28:00,48.2,35.0,29.48,SSE,157,1.4,4.0,59,0.00,,,0.00,Rainwise IP-100,2017-02-25 01:28:00,
2017-02-24 17:33:00,48.0,35.0,29.48,SSW,202,3.0,5.0,60,0.00,,,0.00,Rainwise IP-100,2017-02-25 01:33:00,
2017-02-24 17:38:00,47.9,36.0,29.48,SSW,202,0.0,7.0,61,0.00,,,0.00,Rainwise IP-100,2017-02-25 01:38:00,
2017-02-24 17:43:00,47.7,35.0,29.48,West,270,5.1,5.1,61,0.00,,,0.00,Rainwise IP-100,2017-02-25 01:43:00,
2017-02-24 17:48:00,47.4,35.0,29.48,WSW,247,1.2,8.0,62,0.00,,,0.00,Rainwise IP-100,2017-02-25 01:48:00,
2017-02-24 17:53:00,47.3,35.0,29.48,ENE,67,4.0,4.0,63,0.00,,,0.00,Rainwise IP-100,2017-02-25 01:53:00,
2017-02-24 17:58:00,47.3,35.0,29.48,NNE,22,2.3,6.0,63,0.00,,,0.00,Rainwise IP-100,2017-02-25 01:58:00,
2017-02-24 18:03:00,47.3,35.0,29.48,SSW,202,1.2,5.0,63,0.00,,,0.00,Rainwise IP-100,2017-02-25 02:03:00,
2017-02-24 18:08:00,47.2,35.0,29.48,SSW,202,3.3,6.0,64,0.00,,,0.00,Rainwise IP-100,2017-02-25 02:08:00,
2017-02-24 18:13:00,47.1,35.0,29.48,SSE,157,3.5,3.5,64,0.00,,,0.00,Rainwise IP-100,2017-02-25 02:13:00,
2017-02-24 18:18:00,46.9,36.0,29.48,WNW,292,0.0,6.0,65,0.00,,,0.00,Rainwise IP-100,2017-02-25 02:18:00,
2017-02-24 18:23:00,46.7,36.0,29.49,WSW,247,0.0,5.0,65,0.00,,,0.00,Rainwise IP-100,2017-02-25 02:23:00,
2017-02-24 18:28:00,46.5,36.0,29.49,WSW,247,0.0,1.0,65,0.00,,,0.00,Rainwise IP-100,2017-02-25 02:28:00,
2017-02-24 18:33:00,46.1,36.0,29.49,ENE,67,1.6,4.0,67,0.00,,,0.00,Rainwise IP-100,2017-02-25 02:33:00,
2017-02-24 18:38:00,45.7,36.0,29.49,ENE,67,1.2,4.0,68,0.00,,,0.00,Rainwise IP-100,2017-02-25 02:38:00,